Terminal Aerodrome Forecast
Issued by NWS

Home | Current Version | Previous Version | Graphics & Text | Print | Product List | Glossary On
Versions: 1 2 3 4 5 6 7 8 9 10 11 12 13
263
FTUS45 KGGW 201720
TAFSDY
TAF
KSDY 201720Z 2018/2118 26011KT P6SM FEW220
     FM210300 24005KT P6SM FEW210
     FM211600 24004KT P6SM FEW040=

USA.gov is the U.S. government's official web portal to all federal, state and local government web resources and services.